Change the Weather History Date:

Thursday, February 28, 2013

  Actual Average (KOFK) Record (KOFK)
Temperature  
Mean Temperature 29 °F 31 °F  
Max Temperature 31 °F 41 °F 71 °F (1972)
Min Temperature 27 °F 21 °F -26 °F (1962)
Degree Days  
Heating Degree Days 36 34  
Month to date heating degree days 1069  
Since 1 July heating degree days 5093  
Cooling Degree Days 0 0  
Month to date cooling degree days 0  
Year to date cooling degree days 0  
Moisture  
Dew Point 23 °F    
Average Humidity 80    
Maximum Humidity 87    
Minimum Humidity 73    
Precipitation  
Precipitation 0.00 in 0.03 in 0.74 in (1951)
Month to date precipitation 0.76  
Year to date precipitation 1.35  
Snow  
Snow 0.00 in 0.20 in - ()
Month to date snowfall 5.5  
Since 1 July snowfall 22.8  
Snow Depth -    
Sea Level Pressure  
Sea Level Pressure 30.19 in    
Wind  
Wind Speed 15 mph (NNW)    
Max Wind Speed 21 mph    
Max Gust Speed 26 mph    
Visibility 10 miles    
Events      
T = Trace of Precipitation, MM = Missing Value Source: NWS Daily Summary

Daily Weather History Graph

Daily Weather History Graph

Search for Another Location

Airport or City:

Trip Planner

Search our weather history database for the weather conditions in past years. The results will help you decide how hot, cold, wet, or windy it might be!

Date:

Astronomy

Feb. 28, 2013 Rise Set
Actual Time 7:08 AM CST 6:21 PM CST
Civil Twilight 6:40 AM CST 6:49 PM CST
Nautical Twilight 6:08 AM CST 7:21 PM CST
Astronomical Twilight 5:35 AM CST 7:54 PM CST
Moon 9:54 PM CST (2/28) 8:15 AM CST (2/28)
Length of Visible Light 12h 09m
Length of Day
11h 13m
Waning Gibbous, 90% of the Moon is Illuminated
Feb 28
Waning Gibbous
Mar 4
Last Quarter
Mar 11
New
Mar 19
First Quarter
Mar 27
Full

Hourly Weather History & Observations

Time (CST) Temp. Windchill Dew Point Humidity Pressure Visibility Wind Dir Wind Speed Gust Speed Precip Events Conditions
12:15 AM 31.8 °F 19.9 °F 25.5 °F 78% 30.12 in 10.0 mi NNW 19.6 mph 25.3 mph N/A   Overcast
12:35 AM 31.6 °F 20.4 °F 25.3 °F 78% 30.13 in 10.0 mi NNW 17.3 mph 25.3 mph N/A   Overcast
12:55 AM 31.3 °F 19.9 °F 24.8 °F 77% 30.12 in 10.0 mi NNW 17.3 mph 25.3 mph N/A   Overcast
1:15 AM 31.1 °F 20.5 °F 24.8 °F 77% 30.12 in 10.0 mi NNW 15.0 mph 26.5 mph N/A   Overcast
1:35 AM 31.1 °F 21.4 °F 25.3 °F 79% 30.13 in 10.0 mi North 12.7 mph 20.7 mph N/A   Overcast
1:55 AM 30.7 °F 20.0 °F 24.8 °F 79% 30.13 in 10.0 mi North 15.0 mph - N/A   Overcast
2:15 AM 30.2 °F 19.3 °F 24.6 °F 80% 30.13 in 10.0 mi North 15.0 mph 21.9 mph N/A   Overcast
2:35 AM 29.8 °F 19.8 °F 24.3 °F 80% 30.14 in 10.0 mi North 12.7 mph 24.2 mph N/A   Overcast
2:55 AM 29.5 °F 18.0 °F 24.3 °F 81% 30.14 in 10.0 mi NNW 16.1 mph 23.0 mph N/A   Overcast
3:15 AM 29.3 °F 18.2 °F 24.1 °F 81% 30.15 in 10.0 mi North 15.0 mph 21.9 mph N/A   Overcast
3:35 AM 28.8 °F 18.4 °F 24.3 °F 83% 30.15 in 10.0 mi North 12.7 mph 19.6 mph N/A   Overcast
3:55 AM 28.9 °F 17.3 °F 24.3 °F 83% 30.15 in 10.0 mi North 16.1 mph 21.9 mph N/A   Overcast
4:35 AM 28.2 °F 15.9 °F 23.9 °F 84% 30.15 in 10.0 mi NNW 17.3 mph 21.9 mph N/A   Overcast
4:55 AM 28.0 °F 16.5 °F 23.7 °F 84% 30.15 in 10.0 mi NNW 15.0 mph 23.0 mph N/A   Overcast
5:15 AM 27.5 °F 15.9 °F 23.5 °F 85% 30.16 in 10.0 mi NNW 15.0 mph 24.2 mph N/A   Overcast
5:35 AM 27.5 °F 15.9 °F 23.7 °F 86% 30.17 in 10.0 mi NNW 15.0 mph 21.9 mph N/A   Overcast
5:55 AM 27.3 °F 14.4 °F 23.5 °F 86% 30.16 in 10.0 mi NNW 18.4 mph 24.2 mph N/A   Overcast
6:15 AM 27.3 °F 16.1 °F 23.9 °F 87% 30.16 in 10.0 mi NNW 13.8 mph 18.4 mph N/A   Overcast
6:35 AM 27.3 °F 14.8 °F 23.4 °F 85% 30.17 in 10.0 mi NNW 17.3 mph 25.3 mph N/A   Overcast
6:55 AM 27.3 °F 14.8 °F 23.5 °F 86% 30.17 in 10.0 mi NNW 17.3 mph 24.2 mph N/A   Overcast
7:15 AM 27.3 °F 14.4 °F 23.5 °F 86% 30.17 in 10.0 mi NNW 18.4 mph 24.2 mph N/A   Overcast
7:35 AM 27.5 °F 15.4 °F 23.5 °F 85% 30.18 in 10.0 mi NNW 16.1 mph 24.2 mph N/A   Overcast
7:55 AM 27.5 °F 15.4 °F 23.7 °F 86% 30.18 in 10.0 mi NNW 16.1 mph 21.9 mph N/A   Overcast
8:15 AM 28.0 °F 16.5 °F 23.7 °F 84% 30.18 in 10.0 mi NNW 15.0 mph 23.0 mph N/A   Overcast
8:35 AM 28.2 °F 16.8 °F 23.9 °F 84% 30.19 in 10.0 mi NNW 15.0 mph 18.4 mph N/A   Overcast
8:55 AM 28.4 °F 17.5 °F 23.7 °F 83% 30.20 in 10.0 mi NNW 13.8 mph 20.7 mph N/A   Overcast
9:15 AM 28.4 °F 15.1 °F 23.7 °F 83% 30.20 in 10.0 mi NNW 20.7 mph - N/A   Overcast
9:35 AM 29.1 °F 20.0 °F 23.9 °F 81% 30.20 in 10.0 mi NNW 10.4 mph 20.7 mph N/A   Overcast
9:55 AM 29.3 °F 18.2 °F 23.9 °F 80% 30.21 in 10.0 mi NNW 15.0 mph - N/A   Overcast
10:15 AM 29.5 °F 18.8 °F 23.7 °F 79% 30.21 in 10.0 mi NNW 13.8 mph 23.0 mph N/A   Overcast
10:35 AM 30.2 °F 18.5 °F 24.3 °F 79% 30.22 in 10.0 mi NNW 17.3 mph - N/A   Overcast
10:55 AM 30.2 °F 18.9 °F 24.1 °F 78% 30.22 in 10.0 mi NNW 16.1 mph 20.7 mph N/A   Overcast
11:15 AM 30.6 °F 19.4 °F 23.9 °F 76% 30.21 in 10.0 mi NNW 16.1 mph 24.2 mph N/A   Overcast
11:35 AM 30.6 °F 19.8 °F 23.9 °F 76% 30.21 in 10.0 mi NNW 15.0 mph 20.7 mph N/A   Overcast
11:55 AM 30.6 °F 19.8 °F 23.9 °F 76% 30.22 in 10.0 mi NNW 15.0 mph 18.4 mph N/A   Overcast
12:15 PM 30.7 °F 20.0 °F 23.7 °F 75% 30.22 in 10.0 mi NNW 15.0 mph 19.6 mph N/A   Overcast
12:35 PM 31.1 °F 20.5 °F 23.7 °F 74% 30.21 in 10.0 mi North 15.0 mph 18.4 mph N/A   Overcast
12:55 PM 31.1 °F 22.4 °F 24.3 °F 76% 30.21 in 10.0 mi NNW 10.4 mph 17.3 mph N/A   Overcast
1:15 PM 31.1 °F 21.4 °F 23.9 °F 75% 30.21 in 10.0 mi NNW 12.7 mph 18.4 mph N/A   Overcast
1:35 PM 31.5 °F 21.4 °F 23.7 °F 73% 30.20 in 10.0 mi North 13.8 mph 17.3 mph N/A   Overcast
1:55 PM 31.3 °F 22.7 °F 23.9 °F 74% 30.20 in 10.0 mi North 10.4 mph - N/A   Overcast
2:15 PM 31.5 °F 22.3 °F 23.9 °F 74% 30.19 in 10.0 mi NNW 11.5 mph 19.6 mph N/A   Overcast
2:35 PM 31.5 °F 21.8 °F 23.9 °F 74% 30.19 in 10.0 mi NNW 12.7 mph - N/A   Overcast
3:35 PM 30.7 °F 21.4 °F 23.5 °F 75% 30.19 in 10.0 mi North 11.5 mph 18.4 mph N/A   Overcast
3:55 PM 30.6 °F 20.2 °F 23.9 °F 76% 30.19 in 10.0 mi NNW 13.8 mph - N/A   Overcast
4:15 PM 30.6 °F 19.8 °F 23.7 °F 76% 30.19 in 10.0 mi NNW 15.0 mph 19.6 mph N/A   Overcast
4:35 PM 30.2 °F 20.2 °F 23.5 °F 76% 30.19 in 10.0 mi North 12.7 mph 16.1 mph N/A   Overcast
4:55 PM 30.0 °F 21.1 °F 23.5 °F 77% 30.19 in 10.0 mi North 10.4 mph - N/A   Overcast
5:15 PM 29.7 °F 20.1 °F 23.0 °F 76% 30.20 in 10.0 mi North 11.5 mph - N/A   Overcast
5:35 PM 29.3 °F 21.5 °F 22.8 °F 77% 30.20 in 10.0 mi NNW 8.1 mph - N/A   Overcast
5:55 PM 28.9 °F 19.8 °F 22.8 °F 78% 30.21 in 10.0 mi North 10.4 mph - N/A   Overcast
6:15 PM 28.8 °F 19.0 °F 22.6 °F 78% 30.21 in 10.0 mi North 11.5 mph 17.3 mph N/A   Overcast
6:35 PM 28.4 °F 19.1 °F 22.8 °F 80% 30.21 in 10.0 mi North 10.4 mph - N/A   Overcast
7:15 PM 28.0 °F 19.3 °F 22.6 °F 80% 30.22 in 10.0 mi North 9.2 mph - N/A   Overcast
7:35 PM 27.9 °F 19.8 °F 22.5 °F 80% 30.22 in 10.0 mi North 8.1 mph - N/A   Overcast
7:55 PM 27.5 °F 21.1 °F 22.3 °F 81% 30.22 in 10.0 mi North 5.8 mph - N/A   Overcast
8:15 PM 27.5 °F 20.2 °F 22.1 °F 80% 30.22 in 10.0 mi North 6.9 mph - N/A   Overcast
8:35 PM 27.5 °F 18.6 °F 22.1 °F 80% 30.22 in 10.0 mi North 9.2 mph - N/A   Overcast
8:55 PM 27.5 °F 19.3 °F 22.1 °F 80% 30.22 in 10.0 mi North 8.1 mph - N/A   Overcast
9:15 PM 27.5 °F 16.8 °F 22.1 °F 80% 30.23 in 10.0 mi North 12.7 mph - N/A   Overcast
9:35 PM 27.5 °F 19.3 °F 21.9 °F 80% 30.23 in 10.0 mi NNW 8.1 mph 17.3 mph N/A   Overcast
9:55 PM 27.5 °F 18.0 °F 21.7 °F 79% 30.22 in 10.0 mi North 10.4 mph 16.1 mph N/A   Overcast
10:15 PM 27.3 °F 19.1 °F 21.7 °F 80% 30.22 in 10.0 mi North 8.1 mph - N/A   Overcast
10:35 PM 27.1 °F 18.2 °F 21.7 °F 80% 30.22 in 10.0 mi North 9.2 mph - N/A   Overcast
10:55 PM 27.1 °F 18.2 °F 21.7 °F 80% 30.22 in 10.0 mi North 9.2 mph - N/A   Overcast
11:15 PM 27.0 °F 18.0 °F 21.0 °F 78% 30.22 in 10.0 mi NNW 9.2 mph - N/A   Overcast
11:35 PM 27.0 °F 18.0 °F 21.6 °F 80% 30.22 in 10.0 mi NNW 9.2 mph - N/A   Overcast